Location: Ravensburg
(47.7866°N, 9.6124°E)
Time: 18:36:25
(UTC+01:00)

ISS - Pass Details

Date: 14 November 2025
Orbit: 416 x 421 km, 51.6° (Epoch: 05 December)

Event Time Altitude Azimuth Distance (km) Brightness Sun altitude
Rises 18:53:18 0° 233° (SW) 2,359 1.0 -21.4°
Reaches altitude 10° 18:55:24 10° 229° (SW) 1,497 -0.2 -21.7°
Enters shadow 18:57:48 40° 206° (SSW) 633 -2.7 -22.1°
